| time (UTC) | temp F | wind direction | speed MPH | gust MPH | rain 1hr in | rain 24hr in | rain mn in | humidity % | barometer mb |
| 20260503231602 | 62 | 231 | 2.0 | 7.0 | 0.00 | 0.01 | 0.01 | 67 | 1012.3 |
| 20260503231426 | 63 | 172 | 2.0 | 8.0 | 0.00 | 0.01 | 0.01 | 66 | 1012.2 |
| 20260503230107 | 62 | 181 | 2.0 | 9.0 | 0.00 | 0.01 | 0.01 | 66 | 1012.3 |
| 20260503225327 | 62 | 136 | 3.0 | 8.0 | 0.00 | 0.01 | 0.01 | 66 | 1012.4 |
| 20260503224503 | 62 | 236 | 2.0 | 8.0 | 0.00 | 0.01 | 0.01 | 65 | 1012.6 |
| 20260503224344 | 63 | 195 | 2.0 | 7.0 | 0.00 | 0.01 | 0.01 | 66 | 1012.5 |
| 20260503223407 | 63 | 146 | 2.0 | 6.0 | 0.00 | 0.01 | 0.01 | 64 | 1012.5 |
| 20260503223103 | 62 | 217 | 1.0 | 8.0 | 0.00 | 0.01 | 0.01 | 65 | 1012.7 |
| 20260503222419 | 63 | 150 | 2.0 | 7.0 | 0.00 | 0.01 | 0.01 | 65 | 1012.7 |
| 20260503221502 | 62 | 181 | 4.0 | 8.0 | 0.00 | 0.01 | 0.01 | 65 | 1012.8 |
| 20260503221404 | 62 | 230 | 2.0 | 7.0 | 0.00 | 0.01 | 0.01 | 65 | 1012.8 |
| 20260503220418 | 63 | 240 | 2.0 | 6.0 | 0.00 | 0.01 | 0.01 | 65 | 1012.8 |
| 20260503220002 | 62 | 213 | 2.0 | 8.0 | 0.00 | 0.01 | 0.01 | 65 | 1013.0 |
| 20260503215443 | 62 | 84 | 2.0 | 7.0 | 0.00 | 0.01 | 0.01 | 67 | 1013.0 |
| 20260503214602 | 61 | 227 | 3.0 | 7.0 | 0.00 | 0.01 | 0.01 | 68 | 1012.9 |
| 20260503214445 | 62 | 189 | 2.0 | 7.0 | 0.00 | 0.01 | 0.01 | 68 | 1012.9 |
| 20260503213005 | 61 | 181 | 1.0 | 7.0 | 0.00 | 0.01 | 0.01 | 69 | 1013.1 |
| 20260503212317 | 61 | 233 | 2.0 | 11.0 | 0.00 | 0.01 | 0.01 | 69 | 1013.0 |
| 20260503211611 | 60 | 210 | 2.0 | 12.0 | 0.00 | 0.01 | 0.01 | 70 | 1013.1 |
| 20260503211325 | 61 | 166 | 2.0 | 11.0 | 0.00 | 0.01 | 0.01 | 70 | 1013.1 |
| 20260503210002 | 60 | 176 | 4.0 | 10.0 | 0.00 | 0.01 | 0.01 | 70 | 1013.1 |
| 20260503205123 | 60 | 196 | 2.0 | 5.0 | 0.00 | 0.01 | 0.01 | 73 | 1013.0 |
| 20260503204504 | 60 | 245 | 2.0 | 6.0 | 0.00 | 0.01 | 0.01 | 73 | 1013.0 |
| 20260503204121 | 60 | 242 | 2.0 | 5.0 | 0.00 | 0.01 | 0.01 | 74 | 1013.0 |
| 20260503203102 | 59 | 210 | 1.0 | 7.0 | 0.00 | 0.01 | 0.01 | 75 | 1013.1 |
| 20260503203059 | 60 | 181 | 2.0 | 6.0 | 0.00 | 0.01 | 0.01 | 75 | 1013.1 |
| 20260503202113 | 60 | 227 | 2.0 | 7.0 | 0.00 | 0.01 | 0.01 | 74 | 1013.1 |
| 20260503201502 | 60 | 153 | 0.0 | 8.0 | 0.00 | 0.01 | 0.01 | 76 | 1013.2 |
| 20260503201133 | 60 | 281 | 1.0 | 8.0 | 0.00 | 0.01 | 0.01 | 74 | 1013.2 |
| 20260503200002 | 60 | 219 | 3.0 | 7.0 | 0.00 | 0.01 | 0.01 | 74 | 1013.4 |
| 20260503194913 | 60 | 200 | 2.0 | 0.0 | 0.00 | 0.01 | 0.01 | 76 | 1013.4 |
| 20260503194604 | 60 | 203 | 3.0 | 9.0 | 0.00 | 0.01 | 0.01 | 75 | 1013.5 |
| 20260503193919 | 61 | 215 | 0.0 | 5.0 | 0.00 | 0.01 | 0.01 | 74 | 1013.5 |
| 20260503193003 | 61 | 206 | 0.0 | 3.0 | 0.00 | 0.01 | 0.01 | 76 | 1013.5 |
| 20260503192859 | 61 | 207 | 0.0 | 0.0 | 0.00 | 0.01 | 0.01 | 76 | 1013.4 |
| 20260503191914 | 61 | 231 | 0.0 | 5.0 | 0.00 | 0.01 | 0.01 | 76 | 1013.5 |
| 20260503191603 | 60 | 192 | 1.0 | 5.0 | 0.00 | 0.01 | 0.01 | 76 | 1013.6 |
| 20260503190923 | 61 | 221 | 0.0 | 5.0 | 0.00 | 0.01 | 0.01 | 76 | 1013.6 |
| 20260503190105 | 61 | 224 | 0.0 | 2.0 | 0.00 | 0.01 | 0.01 | 75 | 1013.6 |
| 20260503185851 | 62 | 214 | 0.0 | 1.0 | 0.00 | 0.01 | 0.01 | 75 | 1013.6 |
| 20260503184840 | 61 | 46 | 0.0 | 4.0 | 0.00 | 0.01 | 0.01 | 78 | 1013.7 |
| 20260503184506 | 60 | 203 | 1.0 | 5.0 | 0.00 | 0.01 | 0.01 | 77 | 1013.8 |
| 20260503183844 | 61 | 219 | 0.0 | 3.0 | 0.00 | 0.01 | 0.01 | 80 | 1013.8 |
| 20260503183114 | 60 | 217 | 1.0 | 3.0 | 0.00 | 0.01 | 0.01 | 78 | 1013.9 |
| 20260503181738 | 59 | 222 | 0.0 | 1.0 | 0.00 | 0.01 | 0.01 | 83 | 1014.0 |
| 20260503181506 | 58 | 243 | 0.0 | 2.0 | 0.00 | 0.01 | 0.01 | 84 | 1014.0 |
| 20260503180742 | 57 | 221 | 0.0 | 1.0 | 0.00 | 0.01 | 0.01 | 84 | 1014.0 |
| 20260503180002 | 56 | 263 | 0.0 | 3.0 | 0.00 | 0.01 | 0.01 | 87 | 1014.2 |
| 20260503175752 | 57 | 200 | 0.0 | 3.0 | 0.00 | 0.01 | 0.01 | 87 | 1014.2 |
| 20260503174719 | 56 | 217 | 0.0 | 2.0 | 0.00 | 0.01 | 0.01 | 89 | 1014.2 |
| 20260503174602 | 56 | 206 | 0.0 | 4.0 | 0.00 | 0.01 | 0.01 | 89 | 1014.2 |
| 20260503173734 | 56 | 244 | 0.0 | 5.0 | 0.00 | 0.01 | 0.01 | 92 | 1014.2 |
| 20260503173009 | 55 | 255 | 2.0 | 6.0 | 0.00 | 0.01 | 0.01 | 93 | 1014.1 |
| 20260503172739 | 55 | 198 | 0.0 | 3.0 | 0.00 | 0.01 | 0.01 | 93 | 1014.0 |
| 20260503171752 | 55 | 191 | 0.0 | 3.0 | 0.00 | 0.01 | 0.01 | 94 | 1013.8 |
| 20260503171602 | 55 | 220 | 0.0 | 4.0 | 0.01 | 0.01 | 0.01 | 94 | 1013.9 |
| 20260503170809 | 55 | 148 | 0.0 | 0.0 | 0.00 | 0.01 | 0.01 | 95 | 1013.8 |
| 20260503130103 | 56 | 201 | 0.0 | 2.0 | 0.00 | 0.00 | 0.00 | 85 | 1012.1 |
| 20260503110335 | 56 | 245 | 0.0 | 0.0 | 0.00 | 0.00 | 0.00 | 85 | 1012.0 |
| 20260503110105 | 56 | 207 | 0.0 | 2.0 | 0.00 | 0.00 | 0.00 | 85 | 1012.1 |
| 20260503090105 | 56 | 222 | 1.0 | 4.0 | 0.00 | 0.00 | 0.00 | 89 | 1012.5 |
| 20260503081627 | 56 | 265 | 1.0 | 3.0 | 0.00 | 0.00 | 0.00 | 90 | 1012.5 |
| 20260503081512 | 56 | 279 | 1.0 | 4.0 | 0.00 | 0.00 | 0.00 | 90 | 1012.6 |
| 20260503080633 | 56 | 231 | 0.0 | 4.0 | 0.00 | 0.00 | 0.00 | 91 | 1012.3 |
| 20260503072658 | 57 | 234 | 0.0 | 1.0 | 0.00 | 0.00 | 0.00 | 92 | 1012.2 |
| 20260503071703 | 57 | 134 | 0.0 | 3.0 | 0.00 | 0.00 | 0.00 | 92 | 1012.1 |
| 20260503071624 | 56 | 165 | 1.0 | 4.0 | 0.00 | 0.00 | 0.00 | 92 | 1012.2 |
| 20260503070630 | 57 | 176 | 0.0 | 1.0 | 0.00 | 0.00 | 0.00 | 92 | 1012.0 |
| 20260503070114 | 56 | 242 | 1.0 | 3.0 | 0.00 | 0.00 | 0.00 | 92 | 1012.0 |
| 20260503060245 | 57 | 41 | 0.0 | 0.0 | 0.00 | 0.00 | 0.00 | 92 | 1012.0 |
| 20260503060116 | 57 | 41 | 0.0 | 1.0 | 0.00 | 0.00 | 0.00 | 92 | 1012.0 |
| 20260503054503 | 56 | 46 | 0.0 | 2.0 | 0.00 | 0.00 | 0.00 | 92 | 1012.2 |
| 20260503053103 | 56 | 146 | 0.0 | 1.0 | 0.00 | 0.00 | 0.00 | 92 | 1012.4 |
| 20260503051929 | 57 | 148 | 0.0 | 0.0 | 0.00 | 0.00 | 0.00 | 92 | 1012.3 |
| 20260503051503 | 56 | 141 | 0.0 | 2.0 | 0.00 | 0.00 | 0.00 | 92 | 1012.4 |
| 20260503050907 | 57 | 142 | 0.0 | 0.0 | 0.00 | 0.00 | 0.00 | 92 | 1012.2 |
| 20260503050002 | 57 | 196 | 1.0 | 4.0 | 0.00 | 0.00 | 0.00 | 92 | 1012.2 |
| 20260503044628 | 57 | 150 | 0.0 | 2.0 | 0.00 | 0.00 | 0.00 | 92 | 1012.1 |
| 20260503043518 | 57 | 203 | 0.0 | 2.0 | 0.00 | 0.00 | 0.00 | 92 | 1011.9 |
| 20260503043003 | 57 | 193 | 1.0 | 3.0 | 0.00 | 0.00 | 0.00 | 92 | 1011.9 |
| 20260503042515 | 57 | 146 | 0.0 | 1.0 | 0.00 | 0.00 | 0.00 | 92 | 1011.7 |
| 20260503041602 | 57 | 152 | 1.0 | 2.0 | 0.00 | 0.00 | 0.00 | 92 | 1011.6 |
| 20260503041517 | 57 | 155 | 0.0 | 1.0 | 0.00 | 0.00 | 0.00 | 92 | 1011.5 |
| 20260503040516 | 57 | 214 | 0.0 | 0.0 | 0.00 | 0.00 | 0.00 | 92 | 1011.5 |
| 20260503040110 | 56 | 201 | 0.0 | 2.0 | 0.00 | 0.00 | 0.00 | 92 | 1011.4 |
| 20260503035537 | 57 | 169 | 0.0 | 0.0 | 0.00 | 0.00 | 0.00 | 91 | 1011.3 |
| 20260503034558 | 57 | 169 | 0.0 | 0.0 | 0.00 | 0.00 | 0.00 | 90 | 1011.1 |
| 20260503034503 | 56 | 169 | 0.0 | 0.0 | 0.00 | 0.00 | 0.00 | 90 | 1011.2 |
| 20260503033603 | 57 | 170 | 0.0 | 0.0 | 0.00 | 0.00 | 0.00 | 90 | 1010.8 |
| 20260503033111 | 56 | 170 | 0.0 | 1.0 | 0.00 | 0.00 | 0.00 | 89 | 1010.7 |
| 20260503032602 | 57 | 144 | 0.0 | 0.0 | 0.00 | 0.00 | 0.00 | 89 | 1010.6 |
| 20260503031538 | 57 | 144 | 0.0 | 0.0 | 0.00 | 0.00 | 0.00 | 89 | 1010.5 |
| 20260503031503 | 57 | 144 | 0.0 | 1.0 | 0.00 | 0.00 | 0.00 | 89 | 1010.6 |
| 20260503030530 | 58 | 143 | 0.0 | 1.0 | 0.00 | 0.00 | 0.00 | 89 | 1010.4 |
| 20260503030003 | 57 | 191 | 0.0 | 1.0 | 0.00 | 0.00 | 0.00 | 89 | 1010.4 |
| 20260503025550 | 58 | 191 | 0.0 | 0.0 | 0.00 | 0.00 | 0.00 | 88 | 1010.3 |
| 20260503024615 | 58 | 194 | 0.0 | 0.0 | 0.00 | 0.00 | 0.00 | 88 | 1010.1 |
| 20260503024603 | 58 | 194 | 0.0 | 2.0 | 0.00 | 0.00 | 0.00 | 88 | 1010.2 |
| 20260503023619 | 59 | 148 | 0.0 | 0.0 | 0.00 | 0.00 | 0.00 | 87 | 1010.1 |
| 20260503023002 | 59 | 211 | 0.0 | 4.0 | 0.00 | 0.00 | 0.00 | 86 | 1010.0 |
| 20260503022617 | 59 | 238 | 1.0 | 3.0 | 0.00 | 0.00 | 0.00 | 86 | 1009.9 |
| 20260503021625 | 60 | 207 | 0.0 | 3.0 | 0.00 | 0.00 | 0.00 | 85 | 1009.9 |
| 20260503021604 | 60 | 206 | 1.0 | 4.0 | 0.00 | 0.00 | 0.00 | 85 | 1009.9 |
| 20260503020612 | 61 | 167 | 0.0 | 3.0 | 0.00 | 0.00 | 0.00 | 84 | 1009.8 |
| 20260503020116 | 60 | 169 | 1.0 | 4.0 | 0.00 | 0.00 | 0.00 | 83 | 1009.9 |
| 20260503015557 | 61 | 196 | 0.0 | 3.0 | 0.00 | 0.00 | 0.00 | 83 | 1009.9 |
| 20260503014526 | 61 | 198 | 0.0 | 4.0 | 0.00 | 0.00 | 0.00 | 82 | 1009.9 |
| 20260503014504 | 61 | 201 | 0.0 | 5.0 | 0.00 | 0.00 | 0.00 | 82 | 1009.9 |
| 20260503013512 | 62 | 191 | 1.0 | 6.0 | 0.00 | 0.00 | 0.00 | 81 | 1009.7 |
| 20260503013118 | 62 | 143 | 1.0 | 7.0 | 0.00 | 0.00 | 0.00 | 81 | 1009.8 |
| 20260503012450 | 63 | 241 | 1.0 | 6.0 | 0.00 | 0.00 | 0.00 | 80 | 1009.8 |
| 20260503011510 | 63 | 228 | 1.0 | 6.0 | 0.00 | 0.00 | 0.00 | 80 | 1009.7 |
| 20260503011504 | 63 | 223 | 1.0 | 6.0 | 0.00 | 0.00 | 0.00 | 80 | 1009.7 |
| 20260503010446 | 63 | 243 | 2.0 | 5.0 | 0.00 | 0.00 | 0.00 | 78 | 1009.6 |
| 20260503010002 | 63 | 248 | 2.0 | 5.0 | 0.00 | 0.00 | 0.00 | 78 | 1009.6 |
| 20260503005505 | 64 | 200 | 0.0 | 4.0 | 0.00 | 0.00 | 0.00 | 77 | 1009.6 |
| 20260503004606 | 64 | 233 | 2.0 | 5.0 | 0.00 | 0.00 | 0.00 | 77 | 1009.7 |
| 20260503004522 | 64 | 217 | 1.0 | 6.0 | 0.00 | 0.00 | 0.00 | 77 | 1009.7 |
| 20260503003504 | 65 | 256 | 2.0 | 6.0 | 0.00 | 0.00 | 0.00 | 76 | 1009.7 |
| 20260503002518 | 65 | 200 | 1.0 | 6.0 | 0.00 | 0.00 | 0.00 | 76 | 1009.7 |
| 20260503001602 | 65 | 243 | 2.0 | 7.0 | 0.00 | 0.00 | 0.00 | 76 | 1009.8 |
| 20260503001538 | 65 | 231 | 2.0 | 6.0 | 0.00 | 0.00 | 0.00 | 76 | 1009.7 |
| 20260503000508 | 66 | 177 | 2.0 | 4.0 | 0.00 | 0.00 | 0.00 | 75 | 1009.6 |
| 20260503000106 | 65 | 208 | 3.0 | 5.0 | 0.00 | 0.00 | 0.00 | 75 | 1009.7 |
| 20260502235459 | 66 | 239 | 2.0 | 7.0 | 0.00 | 0.00 | 0.00 | 74 | 1009.7 |
| 20260502234506 | 66 | 173 | 2.0 | 8.0 | 0.00 | 0.00 | 0.00 | 73 | 1009.9 |
| 20260502233436 | 67 | 141 | 1.0 | 4.0 | 0.00 | 0.00 | 0.00 | 73 | 1009.8 |
| 20260502233106 | 67 | 275 | 2.0 | 5.0 | 0.00 | 0.00 | 0.00 | 73 | 1009.8 |
| 20260502232407 | 68 | 207 | 1.0 | 4.0 | 0.00 | 0.00 | 0.00 | 72 | 1009.9 |